User: anonymous   Login
Location: Caltech
(34.1382°N, 118.1253°W)
Time: 22:35:47
(UTC-07:00)
Language:

Uribyol 2 - Orbit

View from above orbital plane
View from above orbital plane
View from above satellite
View from above satellite

Ground track
Ground track

The orbit data is extracted from the following two-line orbital elements,

1 22828U 93061F   15145.46397775  .00000080  00000-0  47948-4 0  9999
2 22828 098.6927 094.8982 0009582 344.3736 015.7149 14.30502881 98173
Epoch (UTC): 25 May 2015 11:08:07
Eccentricity: 0.0009582
inclination: 98.6927°
perigee height: 783 km
apogee height: 797 km
right ascension of ascending node: 94.8982°
argument of perigee: 344.3736°
revolutions per day: 14.30502881
mean anomaly at epoch: 15.7149°
orbit number at epoch: 9817

The dashed part of the orbit path shows where the satellite is in the earth's shadow,  

DLR